User: anonymous   Login
Location: Cul de Sac
(18.0387°N, 63.0654°W)
Time: 23:23:29
(UTC+00:00)
Language:

COSMOS 2251 DEB - Orbit

View from above orbital plane
View from above orbital plane
View from above satellite
View from above satellite

Ground track
Ground track

The orbit data is extracted from the following two-line orbital elements,

1 34955U 93036AEJ 22028.39188992  .00001382  00000-0  18030-3 0  9999
2 34955  74.0461 176.8812 0120031 263.6386  95.1108 14.76740266690309
Epoch (UTC): 28 January 2022 09:24:19
Eccentricity: 0.0120031
inclination: 74.0461°
perigee height: 555 km
apogee height: 724 km
right ascension of ascending node: 176.8812°
argument of perigee: 263.6386°
revolutions per day: 14.76740266
mean anomaly at epoch: 95.1108°
orbit number at epoch: 69030

The dashed part of the orbit path shows where the satellite is in the earth's shadow,  

DLR